カタログに戻る

ONEWEB-0312

運用中通信PO
NORAD 49098·PAYLOAD·🇬🇧 United Kingdom

打ち上げ Aug 21, 2021 から Baikonur Cosmodrome

Loading…

次のパス (今後24時間)

TLE

最新Source: CelesTrak SupGP

元期: Sep 15, 2026, 00:38 UTC

1 49098C 21075Z   26258.02656667  .00001902  00000+0  49061-2 0  2587
2 49098  87.9200 348.0323 0001744 110.7646 283.4153 13.17644144    14

AllMySatでONEWEB-0312をリアルタイム追跡

Download on the App Store